User: anonymous   Login
Location: Gebenbach
(49.5378°N, 11.8735°E)
Time: 11:47:30
(UTC+00:00)
Language:

FALCON 9 DEB - Orbit

View from above orbital plane
View from above orbital plane
View from above satellite
View from above satellite

Ground track
Ground track

The orbit data is extracted from the following two-line orbital elements,

1 46087U 20055BN  21023.15823701  .00009446  00000-0  11201-3 0  9993
2 46087  53.0060 187.6414 0013567 107.1803 253.0696 15.61935062 30961
Epoch (UTC): 23 January 2021 03:47:51
Eccentricity: 0.0013567
inclination: 53.0060°
perigee height: 373 km
apogee height: 391 km
right ascension of ascending node: 187.6414°
argument of perigee: 107.1803°
revolutions per day: 15.61935062
mean anomaly at epoch: 253.0696°
orbit number at epoch: 3096

The dashed part of the orbit path shows where the satellite is in the earth's shadow,  

DLR